SCP
1 0 0 0 0 0 0 0 0 0 0 0 0 0 0 -0 0 0 0 0 0 0 0 0 0 0 0 0 0 0 0 0 0 1 1 1 0 0 0 0 0 0 0
1 0 0 0 0 0 0 0 0 0 0 0 0 0 0 0 0 0 0 0 0 0 0 0 0 1 1 1 1 1 0 0 0 0 1 1 1 0 0 0 0 0 0
1 1 0 0 0 0 0 0 0 0 0 0 0 0 0 0 0 0 0 0 0 0 0 0 0 1 1 1 1 1 1 1 1 1 1 1 1 1 1 0 0 0 0
1 0 0 0 0 0 0 0 0 0 0 0 0 0 0 0 0 0 0 0 0 0 0 0 0 1 1 1 1 1 1 1 1 1 1 1 1 1 1 0 0 0 0
2 1 0 0 0 0 0 0 0 0 0 0 0 0 0 0 0 0 0 0 0 0 0 0 0 1 1 2 1 2 2 1 1 1 1 1 1 1 1 0 0 0 0
2 1 1 0 0 0 0 0 0 0 0 0 0 0 0 0 0 0 0 0 0 0 0 0 0 1 1 1 2 2 3 3 2 1 1 1 1 1 1 0 0 0 0
2 2 1 1 0 0 0 0 0 0 0 0 0 0 0 0 0 0 0 0 0 0 0 0 1 1 1 1 1 2 3 4 3 2 1 1 1 1 1 0 0 0 0
1 2 2 2 1 1 0 0 0 0 0 0 0 0 0 0 0 0 0 1 0 1 0 1 1 1 1 0 0 1 2 2 1 1 0 0 0 0 0 0 0 0 0
1 2 2 3 2 2 1 1 1 0 0 0 0 1 0 0 0 1 1 1 1 1 1 0 1 1 1 1 1 1 0 0 0 0 0 0 0 0 0 0 0 0 0
2 2 2 1 2 2 2 1 1 1 1 1 1 0 0 0 0 1 2 1 1 1 1 1 1 0 0 0 1 1 0 0 0 0 0 0 0 0 0 0 0 0 0
2 2 2 2 2 2 1 1 1 1 1 1 1 1 1 3 2 1 1 3 2 1 1 1 0 0 0 0 0 0 0 0 0 0 0 0 0 -0 0 0 0 0 0
1 1 1 2 2 2 1 1 1 1 1 1 1 1 1 1 2 2 1 1 2 1 0 0 0 0 0 0 0 0 0 0 0 0 0 0 0 0 0 0 0 0 0
0 0 0 1 1 2 2 2 1 1 2 1 1 1 0 1 1 1 1 0 1 0 0 0 0 0 0 0 0 0 0 0 0 0 0 0 0 0 0 0 0 0 0
0 0 -0 0 1 1 2 1 0 0 0 0 0 0 1 1 1 1 1 1 0 0 0 0 0 0 0 0 0 0 0 0 0 0 0 0 0 0 0 0 0 0 0
0 0 0 -0 -0 1 1 1 0 0 0 0 0 0 1 2 1 1 1 1 1 0 0 0 0 0 0 1 0 0 0 0 0 0 0 0 0 0 0 0 0 0 0
0 0 0 0 0 1 1 1 0 0 0 0 0 0 2 2 3 1 1 1 1 1 1 0 0 1 0 0 0 0 0 0 0 0 0 0 0 0 0 0 0 0 0
0 -0 -0 -0 0 0 1 1 0 0 1 1 1 1 1 2 2 2 2 1 1 1 1 1 0 0 0 0 0 0 0 0 0 0 0 0 0 0 0 0 0 0 0
0 -0 -0 -0 -0 -0 1 2 2 2 1 1 0 0 0 0 0 0 1 1 1 1 1 1 0 0 0 0 0 0 0 0 0 0 0 0 0 0 0 0 0 0 0
0 0 -0 -0 -0 -0 0 0 1 0 0 0 0 0 0 0 0 -0 0 0 1 1 1 1 1 0 0 0 0 0 0 0 0 0 0 0 0 0 0 0 0 0 0
0 0 -0 -0 -0 -0 -0 1 0 0 0 0 0 0 0 0 0 -0 0 0 1 1 1 1 0 0 0 0 0 0 0 0 0 0 0 0 0 0 0 0 0 0 0
0 0 0 -0 -0 -0 0 0 0 0 0 0 0 0 0 0 0 0 0 0 0 0 0 0 0 0 0 0 0 0 0 0 0 0 0 0 0 0 0 0 0 0 0
0 0 0 -0 -0 0 0 0 0 1 0 0 0 0 0 0 0 0 -0 0 0 0 0 0 0 0 0 0 0 0 0 0 0 0 0 0 0 0 0 0 0 0 0
0 0 0 0 -0 0 0 0 0 0 0 0 0 0 0 0 -0 -0 0 0 0 0 0 0 0 0 0 0 0 0 0 0 0 0 0 0 0 0 0 0 0 0 0
0 0 0 0 0 0 0 0 0 0 0 -0 -0 -0 -0 -0 0 0 0 0 0 0 0 0 0 0 0 0 0 0 0 0 0 0 0 0 0 0 0 0 0 0 0
0 0 0 0 0 0 0 0 0 0 0 0 -0 -0 0 0 0 0 0 0 0 0 0 0 0 0 0 0 0 0 0 0 0 0 0 0 0 0 0 0 0 0 0
0 0 0 0 -0 0 0 0 0 -0 0 0 -0 0 0 0 0 0 0 0 0 0 0 0 0 0 0 0 0 0 0 0 0 0 0 0 0 0 0 -0 0 0 0
Wind_Speed_500mb
64 58 55 53 52 50 50 48 47 46 43 41 39 37 32 32 37 32 24 19 23 23 27 24 21 19 17 15 15 19 24 27 28 24 25 26 25 28 27 26 27 24 26
72 71 65 62 59 59 57 55 53 51 49 47 45 41 37 36 37 38 31 28 32 34 31 26 23 20 21 18 19 21 22 22 24 26 25 28 29 28 29 29 31 30 28
80 80 78 73 70 66 64 62 59 57 56 54 54 47 42 37 35 43 40 38 38 37 38 34 29 25 27 20 23 22 22 19 20 22 23 27 32 34 33 32 33 34 32
84 86 88 84 77 74 73 71 70 68 66 63 60 54 48 41 42 43 45 46 44 44 43 42 39 32 32 26 26 26 24 21 21 22 22 25 32 38 40 38 37 37 34
83 89 95 93 92 81 77 80 78 80 79 76 72 63 56 52 50 42 39 45 48 45 45 46 43 40 39 40 25 28 31 26 29 32 37 45 43 44 42 44 43 40 38
72 79 90 94 95 91 86 88 87 86 85 77 76 66 59 56 51 50 46 44 45 46 44 47 48 50 50 51 35 29 32 35 42 37 53 58 54 51 50 45 46 44 41
76 74 80 87 92 98 93 89 83 80 84 81 69 62 65 61 57 59 52 51 50 51 52 49 53 52 53 51 50 46 47 46 44 51 64 65 63 52 51 44 43 44 44
82 88 89 88 87 90 96 96 91 86 87 81 71 60 55 62 68 67 61 57 59 58 61 56 54 55 57 52 51 58 56 50 49 54 65 66 57 54 48 43 37 39 41
88 89 95 95 91 88 98 99 93 96 92 86 80 74 36 41 65 73 67 66 65 62 60 53 54 55 55 58 56 60 53 56 55 61 62 65 59 54 42 38 34 33 36
79 89 96 99 95 98 101 104 102 101 101 90 92 97 89 45 32 35 71 75 67 61 61 53 53 54 52 54 46 60 64 54 59 58 62 65 57 49 42 29 28 28 32
72 78 84 90 95 104 103 99 98 104 107 103 94 90 100 81 48 41 53 56 67 72 64 56 56 53 49 39 45 52 33 46 49 51 59 50 38 28 28 23 22 25 29
59 57 65 86 91 96 97 97 93 97 98 104 102 84 89 99 87 68 47 47 53 56 61 59 59 57 48 51 48 42 32 33 39 44 50 38 31 24 19 21 21 23 25
70 74 70 66 76 95 100 100 106 101 90 77 89 98 95 89 96 93 85 62 48 55 53 58 54 52 47 44 37 33 35 36 43 42 40 29 19 15 17 19 21 21 23
74 75 75 82 84 74 93 100 111 110 82 83 102 90 104 101 104 105 100 85 72 73 57 60 49 40 25 28 25 27 35 40 45 45 34 20 18 19 20 18 16 16 16
66 68 72 80 83 84 82 96 109 102 87 93 109 112 107 117 109 112 104 93 81 62 64 57 43 27 18 23 21 27 34 42 41 35 30 20 17 14 21 28 17 14 19
71 75 74 77 74 74 80 86 101 107 93 101 91 110 107 113 106 104 107 88 86 80 60 47 39 30 22 25 24 23 32 36 26 27 26 19 17 20 19 25 23 19 21
77 79 85 84 88 79 78 83 92 98 92 118 105 102 93 103 108 119 99 87 93 81 64 58 44 35 26 23 22 22 30 24 23 23 22 20 20 21 22 23 25 24 23
73 78 79 81 84 85 78 80 88 97 91 95 88 78 55 39 34 82 77 88 93 80 67 53 45 33 26 21 18 23 25 24 21 21 26 25 24 27 30 33 32 29 25
62 65 68 75 81 82 82 82 80 90 87 83 77 81 72 76 68 94 61 88 90 78 53 46 39 32 26 21 19 15 16 21 22 21 24 23 27 29 30 28 27 28 19
57 59 63 70 79 85 82 78 79 80 95 100 96 73 63 61 82 83 106 97 87 62 48 46 38 36 27 26 27 20 17 14 14 21 21 18 23 25 20 19 16 16 14
62 51 53 67 79 83 67 65 73 73 79 87 86 95 87 82 64 37 54 83 67 58 49 43 41 31 28 32 27 20 18 15 18 22 17 15 16 18 18 14 12 13 14
73 53 48 58 66 54 53 55 62 67 70 85 92 97 84 56 57 43 58 59 59 52 51 46 40 36 33 30 31 29 23 20 23 23 21 22 23 21 26 16 10 14 14
81 55 38 49 50 48 42 47 52 65 67 67 72 77 64 64 70 51 50 54 49 48 40 40 41 38 32 30 27 28 25 21 19 22 23 22 18 12 24 19 16 17 15
59 46 48 42 45 40 47 42 31 22 49 51 57 59 56 57 56 56 60 54 50 45 39 34 34 27 25 25 23 27 25 24 22 22 19 18 12 20 19 19 23 17 12
45 57 36 37 41 36 50 54 39 45 65 52 54 51 47 54 60 65 61 54 42 37 31 30 30 32 27 20 25 22 21 27 29 28 21 12 11 22 18 18 23 25 18
40 46 34 36 35 37 53 54 55 63 67 70 71 57 53 62 69 63 52 46 38 32 26 28 31 28 25 25 30 23 26 32 31 22 14 21 14 22 18 30 32 22 18
Wind_Direction_500mb
226 225 224 224 224 222 221 222 222 222 224 225 229 232 232 230 219 220 232 240 253 265 278 286 275 257 246 242 272 288 298 305 305 300 298 295 290 288 279 276 272 269 258
229 230 229 227 226 225 225 225 226 228 229 231 233 236 238 238 225 227 237 247 253 257 263 269 263 256 236 248 260 278 296 307 303 298 292 288 287 284 283 280 273 268 266
232 234 233 230 228 227 227 227 228 231 232 233 234 235 237 236 228 228 236 244 242 250 259 258 253 252 233 249 254 266 286 295 304 305 301 295 290 286 282 281 277 268 264
242 235 238 236 232 227 227 226 226 228 232 234 237 234 234 231 227 225 232 239 246 254 255 249 248 253 237 246 255 255 267 277 288 299 306 310 308 294 283 274 275 271 265
241 244 242 238 238 232 230 230 229 228 229 230 232 231 231 229 234 230 228 234 244 253 255 251 250 252 252 242 260 259 264 271 287 294 302 305 304 302 298 281 268 267 265
244 245 244 245 243 241 236 233 233 231 231 233 235 232 233 234 236 235 236 237 242 250 261 262 256 253 256 249 253 260 273 281 285 288 302 305 298 290 294 286 270 261 261
244 246 247 247 244 244 244 243 243 242 239 238 237 238 238 234 233 239 238 244 249 257 265 264 263 264 262 258 255 272 281 277 292 284 295 304 302 286 290 282 267 258 257
259 251 249 250 247 246 246 246 244 245 245 242 236 235 248 240 233 233 236 240 250 257 263 262 267 266 262 254 260 269 273 277 290 293 293 304 300 288 290 283 265 254 255
256 259 256 246 254 253 249 246 244 243 244 242 234 230 233 237 238 235 236 238 241 252 263 259 263 263 256 255 263 275 273 275 286 296 299 301 304 293 288 276 253 252 255
261 261 258 260 260 258 253 250 245 242 238 237 233 237 239 252 223 234 237 237 237 244 253 258 259 258 258 261 278 285 280 276 286 294 300 309 304 283 280 269 245 251 254
267 267 267 267 265 261 260 258 245 244 242 238 237 238 240 233 235 234 229 235 239 242 242 247 258 257 263 266 286 298 295 278 285 294 314 314 312 295 275 248 244 250 256
279 277 277 273 271 266 262 261 255 249 242 238 238 240 242 235 230 234 228 230 230 232 241 248 256 255 254 271 281 286 290 287 293 307 311 317 311 303 266 246 248 254 261
283 282 280 278 276 270 264 255 257 250 243 241 247 241 246 242 245 237 236 234 238 246 251 254 251 254 264 267 264 273 280 289 306 312 313 317 307 317 278 268 256 254 262
279 284 289 281 276 277 262 257 249 236 252 276 265 252 247 245 244 243 241 241 242 247 247 252 259 266 256 251 249 263 273 287 296 306 316 299 293 300 332 297 284 270 269
283 280 280 290 282 276 270 257 251 242 246 244 247 252 245 248 243 242 245 247 239 236 241 251 255 255 225 254 256 264 275 280 293 307 309 297 299 291 288 303 293 295 293
278 281 282 280 287 279 270 264 258 259 252 236 237 243 238 242 241 246 244 239 240 239 244 245 244 249 233 256 253 267 281 287 290 309 308 296 294 298 305 292 290 292 294
283 282 283 286 284 288 272 265 257 258 248 234 244 246 248 248 246 245 245 238 237 238 233 242 247 250 243 240 240 269 286 286 287 290 299 288 279 285 288 308 303 297 307
287 287 285 290 289 284 274 260 255 253 248 240 238 238 240 239 295 259 236 240 236 235 232 241 241 233 229 237 259 272 277 281 290 294 282 274 278 272 277 279 286 288 295
278 289 295 291 291 285 272 264 253 248 242 240 237 239 245 264 272 283 247 234 235 232 230 232 230 223 212 239 242 268 273 266 277 279 299 285 276 276 272 272 277 269 271
287 282 291 301 292 291 274 264 251 249 249 246 245 248 239 256 249 280 248 238 230 223 215 219 221 220 231 230 241 255 261 252 291 278 291 296 287 269 261 274 277 275 259
286 289 294 300 295 292 266 259 248 244 250 249 247 249 244 253 272 251 207 226 221 216 208 210 217 209 214 223 236 238 256 272 283 280 273 306 305 278 255 282 291 234 220
273 290 293 309 304 281 257 253 242 240 237 238 239 239 244 230 212 188 210 221 217 212 214 204 212 218 221 227 243 252 255 271 281 269 268 293 302 263 250 238 217 204 203
259 277 296 305 297 270 236 217 220 229 230 231 229 228 217 203 197 215 216 215 209 200 206 217 224 230 235 238 245 246 249 257 278 263 274 295 300 228 181 188 187 172 173
258 254 286 290 290 274 227 204 184 189 182 186 181 179 184 196 199 204 203 196 185 193 205 212 218 215 212 217 238 256 266 265 271 266 269 285 211 186 204 198 186 188 195
257 248 284 288 281 280 207 189 202 234 239 223 221 215 201 195 193 185 180 184 193 192 191 206 211 212 218 230 251 254 260 271 274 270 249 240 215 187 188 198 207 199 212
250 243 278 287 274 268 236 222 237 249 217 211 221 217 204 188 175 178 185 179 170 170 170 197 210 219 226 234 246 256 266 265 258 259 205 184 202 189 213 258 199 195 217
Wind_Speed_850mb
64 58 55 53 52 50 50 48 47 46 43 41 39 37 32 32 37 32 24 19 23 23 27 24 21 19 17 15 15 19 24 27 28 24 25 26 25 28 27 26 27 24 26
72 71 65 62 59 59 57 55 53 51 49 47 45 41 37 36 37 38 31 28 32 34 31 26 23 20 21 18 19 21 22 22 24 26 25 28 29 28 29 29 31 30 28
80 80 78 73 70 66 64 62 59 57 56 54 54 47 42 37 35 43 40 38 38 37 38 34 29 25 27 20 23 22 22 19 20 22 23 27 32 34 33 32 33 34 32
84 86 88 84 77 74 73 71 70 68 66 63 60 54 48 41 42 43 45 46 44 44 43 42 39 32 32 26 26 26 24 21 21 22 22 25 32 38 40 38 37 37 34
83 89 95 93 92 81 77 80 78 80 79 76 72 63 56 52 50 42 39 45 48 45 45 46 43 40 39 40 25 28 31 26 29 32 37 45 43 44 42 44 43 40 38
72 79 90 94 95 91 86 88 87 86 85 77 76 66 59 56 51 50 46 44 45 46 44 47 48 50 50 51 35 29 32 35 42 37 53 58 54 51 50 45 46 44 41
76 74 80 87 92 98 93 89 83 80 84 81 69 62 65 61 57 59 52 51 50 51 52 49 53 52 53 51 50 46 47 46 44 51 64 65 63 52 51 44 43 44 44
82 88 89 88 87 90 96 96 91 86 87 81 71 60 55 62 68 67 61 57 59 58 61 56 54 55 57 52 51 58 56 50 49 54 65 66 57 54 48 43 37 39 41
88 89 95 95 91 88 98 99 93 96 92 86 80 74 36 41 65 73 67 66 65 62 60 53 54 55 55 58 56 60 53 56 55 61 62 65 59 54 42 38 34 33 36
79 89 96 99 95 98 101 104 102 101 101 90 92 97 89 45 32 35 71 75 67 61 61 53 53 54 52 54 46 60 64 54 59 58 62 65 57 49 42 29 28 28 32
72 78 84 90 95 104 103 99 98 104 107 103 94 90 100 81 48 41 53 56 67 72 64 56 56 53 49 39 45 52 33 46 49 51 59 50 38 28 28 23 22 25 29
59 57 65 86 91 96 97 97 93 97 98 104 102 84 89 99 87 68 47 47 53 56 61 59 59 57 48 51 48 42 32 33 39 44 50 38 31 24 19 21 21 23 25
70 74 70 66 76 95 100 100 106 101 90 77 89 98 95 89 96 93 85 62 48 55 53 58 54 52 47 44 37 33 35 36 43 42 40 29 19 15 17 19 21 21 23
74 75 75 82 84 74 93 100 111 110 82 83 102 90 104 101 104 105 100 85 72 73 57 60 49 40 25 28 25 27 35 40 45 45 34 20 18 19 20 18 16 16 16
66 68 72 80 83 84 82 96 109 102 87 93 109 112 107 117 109 112 104 93 81 62 64 57 43 27 18 23 21 27 34 42 41 35 30 20 17 14 21 28 17 14 19
71 75 74 77 74 74 80 86 101 107 93 101 91 110 107 113 106 104 107 88 86 80 60 47 39 30 22 25 24 23 32 36 26 27 26 19 17 20 19 25 23 19 21
77 79 85 84 88 79 78 83 92 98 92 118 105 102 93 103 108 119 99 87 93 81 64 58 44 35 26 23 22 22 30 24 23 23 22 20 20 21 22 23 25 24 23
73 78 79 81 84 85 78 80 88 97 91 95 88 78 55 39 34 82 77 88 93 80 67 53 45 33 26 21 18 23 25 24 21 21 26 25 24 27 30 33 32 29 25
62 65 68 75 81 82 82 82 80 90 87 83 77 81 72 76 68 94 61 88 90 78 53 46 39 32 26 21 19 15 16 21 22 21 24 23 27 29 30 28 27 28 19
57 59 63 70 79 85 82 78 79 80 95 100 96 73 63 61 82 83 106 97 87 62 48 46 38 36 27 26 27 20 17 14 14 21 21 18 23 25 20 19 16 16 14
62 51 53 67 79 83 67 65 73 73 79 87 86 95 87 82 64 37 54 83 67 58 49 43 41 31 28 32 27 20 18 15 18 22 17 15 16 18 18 14 12 13 14
73 53 48 58 66 54 53 55 62 67 70 85 92 97 84 56 57 43 58 59 59 52 51 46 40 36 33 30 31 29 23 20 23 23 21 22 23 21 26 16 10 14 14
81 55 38 49 50 48 42 47 52 65 67 67 72 77 64 64 70 51 50 54 49 48 40 40 41 38 32 30 27 28 25 21 19 22 23 22 18 12 24 19 16 17 15
59 46 48 42 45 40 47 42 31 22 49 51 57 59 56 57 56 56 60 54 50 45 39 34 34 27 25 25 23 27 25 24 22 22 19 18 12 20 19 19 23 17 12
45 57 36 37 41 36 50 54 39 45 65 52 54 51 47 54 60 65 61 54 42 37 31 30 30 32 27 20 25 22 21 27 29 28 21 12 11 22 18 18 23 25 18
40 46 34 36 35 37 53 54 55 63 67 70 71 57 53 62 69 63 52 46 38 32 26 28 31 28 25 25 30 23 26 32 31 22 14 21 14 22 18 30 32 22 18
Wind_Direction_850mb
226 225 224 224 224 222 221 222 222 222 224 225 229 232 232 230 219 220 232 240 253 265 278 286 275 257 246 242 272 288 298 305 305 300 298 295 290 288 279 276 272 269 258
229 230 229 227 226 225 225 225 226 228 229 231 233 236 238 238 225 227 237 247 253 257 263 269 263 256 236 248 260 278 296 307 303 298 292 288 287 284 283 280 273 268 266
232 234 233 230 228 227 227 227 228 231 232 233 234 235 237 236 228 228 236 244 242 250 259 258 253 252 233 249 254 266 286 295 304 305 301 295 290 286 282 281 277 268 264
242 235 238 236 232 227 227 226 226 228 232 234 237 234 234 231 227 225 232 239 246 254 255 249 248 253 237 246 255 255 267 277 288 299 306 310 308 294 283 274 275 271 265
241 244 242 238 238 232 230 230 229 228 229 230 232 231 231 229 234 230 228 234 244 253 255 251 250 252 252 242 260 259 264 271 287 294 302 305 304 302 298 281 268 267 265
244 245 244 245 243 241 236 233 233 231 231 233 235 232 233 234 236 235 236 237 242 250 261 262 256 253 256 249 253 260 273 281 285 288 302 305 298 290 294 286 270 261 261
244 246 247 247 244 244 244 243 243 242 239 238 237 238 238 234 233 239 238 244 249 257 265 264 263 264 262 258 255 272 281 277 292 284 295 304 302 286 290 282 267 258 257
259 251 249 250 247 246 246 246 244 245 245 242 236 235 248 240 233 233 236 240 250 257 263 262 267 266 262 254 260 269 273 277 290 293 293 304 300 288 290 283 265 254 255
256 259 256 246 254 253 249 246 244 243 244 242 234 230 233 237 238 235 236 238 241 252 263 259 263 263 256 255 263 275 273 275 286 296 299 301 304 293 288 276 253 252 255
261 261 258 260 260 258 253 250 245 242 238 237 233 237 239 252 223 234 237 237 237 244 253 258 259 258 258 261 278 285 280 276 286 294 300 309 304 283 280 269 245 251 254
267 267 267 267 265 261 260 258 245 244 242 238 237 238 240 233 235 234 229 235 239 242 242 247 258 257 263 266 286 298 295 278 285 294 314 314 312 295 275 248 244 250 256
279 277 277 273 271 266 262 261 255 249 242 238 238 240 242 235 230 234 228 230 230 232 241 248 256 255 254 271 281 286 290 287 293 307 311 317 311 303 266 246 248 254 261
283 282 280 278 276 270 264 255 257 250 243 241 247 241 246 242 245 237 236 234 238 246 251 254 251 254 264 267 264 273 280 289 306 312 313 317 307 317 278 268 256 254 262
279 284 289 281 276 277 262 257 249 236 252 276 265 252 247 245 244 243 241 241 242 247 247 252 259 266 256 251 249 263 273 287 296 306 316 299 293 300 332 297 284 270 269
283 280 280 290 282 276 270 257 251 242 246 244 247 252 245 248 243 242 245 247 239 236 241 251 255 255 225 254 256 264 275 280 293 307 309 297 299 291 288 303 293 295 293
278 281 282 280 287 279 270 264 258 259 252 236 237 243 238 242 241 246 244 239 240 239 244 245 244 249 233 256 253 267 281 287 290 309 308 296 294 298 305 292 290 292 294
283 282 283 286 284 288 272 265 257 258 248 234 244 246 248 248 246 245 245 238 237 238 233 242 247 250 243 240 240 269 286 286 287 290 299 288 279 285 288 308 303 297 307
287 287 285 290 289 284 274 260 255 253 248 240 238 238 240 239 295 259 236 240 236 235 232 241 241 233 229 237 259 272 277 281 290 294 282 274 278 272 277 279 286 288 295
278 289 295 291 291 285 272 264 253 248 242 240 237 239 245 264 272 283 247 234 235 232 230 232 230 223 212 239 242 268 273 266 277 279 299 285 276 276 272 272 277 269 271
287 282 291 301 292 291 274 264 251 249 249 246 245 248 239 256 249 280 248 238 230 223 215 219 221 220 231 230 241 255 261 252 291 278 291 296 287 269 261 274 277 275 259
286 289 294 300 295 292 266 259 248 244 250 249 247 249 244 253 272 251 207 226 221 216 208 210 217 209 214 223 236 238 256 272 283 280 273 306 305 278 255 282 291 234 220
273 290 293 309 304 281 257 253 242 240 237 238 239 239 244 230 212 188 210 221 217 212 214 204 212 218 221 227 243 252 255 271 281 269 268 293 302 263 250 238 217 204 203
259 277 296 305 297 270 236 217 220 229 230 231 229 228 217 203 197 215 216 215 209 200 206 217 224 230 235 238 245 246 249 257 278 263 274 295 300 228 181 188 187 172 173
258 254 286 290 290 274 227 204 184 189 182 186 181 179 184 196 199 204 203 196 185 193 205 212 218 215 212 217 238 256 266 265 271 266 269 285 211 186 204 198 186 188 195
257 248 284 288 281 280 207 189 202 234 239 223 221 215 201 195 193 185 180 184 193 192 191 206 211 212 218 230 251 254 260 271 274 270 249 240 215 187 188 198 207 199 212
250 243 278 287 274 268 236 222 237 249 217 211 221 217 204 188 175 178 185 179 170 170 170 197 210 219 226 234 246 256 266 265 258 259 205 184 202 189 213 258 199 195 217